Time,TemperatureF,DewpointF,PressureIn,WindDirection,WindDirectionDegrees,WindSpeedMPH,WindSpeedGustMPH,Humidity,HourlyPrecipIn,Conditions,Clouds,dailyrainin,SoftwareType,DateUTC
2013-12-12 00:01:00,58.1,29.7,27.50,NW,315,4.0,5.1,34,0.00,,,0.00,WUHU216HW,2013-12-12 07:01:00,
2013-12-12 00:06:00,58.1,29.7,27.50,North,0,4.5,4.9,34,0.00,,,0.00,WUHU216HW,2013-12-12 07:06:00,
2013-12-12 00:11:00,58.1,29.7,27.49,NW,315,3.8,5.1,34,0.00,,,0.00,WUHU216HW,2013-12-12 07:11:00,
2013-12-12 00:16:00,58.0,29.5,27.50,NNW,338,2.9,5.1,34,0.00,,,0.00,WUHU216HW,2013-12-12 07:16:00,
2013-12-12 00:21:00,58.0,29.5,27.50,North,0,2.2,4.5,34,0.00,,,0.00,WUHU216HW,2013-12-12 07:21:00,
2013-12-12 00:26:00,57.8,29.4,27.50,North,0,2.7,4.3,34,0.00,,,0.00,WUHU216HW,2013-12-12 07:26:00,
2013-12-12 00:31:00,57.8,29.4,27.50,NNW,338,2.5,4.7,34,0.00,,,0.00,WUHU216HW,2013-12-12 07:31:00,
2013-12-12 00:36:00,57.6,29.3,27.50,WNW,293,3.6,4.7,34,0.00,,,0.00,WUHU216HW,2013-12-12 07:36:00,
2013-12-12 00:41:00,57.6,29.3,27.50,WNW,293,4.9,5.4,34,0.00,,,0.00,WUHU216HW,2013-12-12 07:41:00,
2013-12-12 00:46:00,57.4,29.1,27.50,NW,315,3.8,5.4,34,0.00,,,0.00,WUHU216HW,2013-12-12 07:46:00,
2013-12-12 00:51:00,57.4,29.1,27.50,NW,315,4.9,4.9,34,0.00,,,0.00,WUHU216HW,2013-12-12 07:51:00,
2013-12-12 00:56:00,57.4,29.1,27.50,NNW,338,5.6,5.6,34,0.00,,,0.00,WUHU216HW,2013-12-12 07:56:00,
2013-12-12 01:01:00,57.2,28.2,27.50,NW,315,4.0,5.6,33,0.00,,,0.00,WUHU216HW,2013-12-12 08:01:00,
2013-12-12 01:06:00,57.4,28.4,27.50,NNW,338,4.0,5.6,33,0.00,,,0.00,WUHU216HW,2013-12-12 08:06:00,
2013-12-12 01:11:00,57.4,28.4,27.49,NW,315,2.7,4.9,33,0.00,,,0.00,WUHU216HW,2013-12-12 08:11:00,
2013-12-12 01:16:00,57.4,28.4,27.50,ENE,68,4.3,4.9,33,0.00,,,0.00,WUHU216HW,2013-12-12 08:16:00,
2013-12-12 01:21:00,57.2,28.2,27.49,WNW,293,4.0,4.9,33,0.00,,,0.00,WUHU216HW,2013-12-12 08:21:00,
2013-12-12 01:26:00,57.2,28.2,27.49,NW,315,4.3,6.5,33,0.00,,,0.00,WUHU216HW,2013-12-12 08:26:00,
2013-12-12 01:31:00,57.2,28.2,27.49,West,270,4.0,6.5,33,0.00,,,0.00,WUHU216HW,2013-12-12 08:31:00,
2013-12-12 01:36:00,57.2,28.2,27.49,NW,315,3.1,6.5,33,0.00,,,0.00,WUHU216HW,2013-12-12 08:36:00,
2013-12-12 01:41:00,57.1,28.1,27.49,West,270,2.5,6.3,33,0.00,,,0.00,WUHU216HW,2013-12-12 08:41:00,
2013-12-12 01:46:00,57.1,28.1,27.49,NW,315,4.3,5.8,33,0.00,,,0.00,WUHU216HW,2013-12-12 08:46:00,
2013-12-12 01:51:00,57.1,27.4,27.49,WNW,293,2.5,6.5,32,0.00,,,0.00,WUHU216HW,2013-12-12 08:51:00,
2013-12-12 01:56:00,57.1,27.4,27.49,NNW,338,6.9,6.9,32,0.00,,,0.00,WUHU216HW,2013-12-12 08:56:00,
2013-12-12 02:01:00,57.1,27.4,27.49,NNW,338,4.3,6.9,32,0.00,,,0.00,WUHU216HW,2013-12-12 09:01:00,
2013-12-12 02:06:00,57.1,27.4,27.49,NW,315,5.4,6.5,32,0.00,,,0.00,WUHU216HW,2013-12-12 09:06:00,
2013-12-12 02:11:00,57.1,28.1,27.49,WNW,293,5.1,6.5,33,0.00,,,0.00,WUHU216HW,2013-12-12 09:11:00,
2013-12-12 02:16:00,57.2,28.2,27.49,West,270,4.3,8.1,33,0.00,,,0.00,WUHU216HW,2013-12-12 09:16:00,
2013-12-12 02:21:00,57.2,28.2,27.49,NW,315,2.7,8.1,33,0.00,,,0.00,WUHU216HW,2013-12-12 09:21:00,
2013-12-12 02:26:00,57.2,28.2,27.49,West,270,3.1,7.2,33,0.00,,,0.00,WUHU216HW,2013-12-12 09:26:00,
2013-12-12 02:31:00,57.2,28.2,27.49,SW,225,2.5,5.4,33,0.00,,,0.00,WUHU216HW,2013-12-12 09:31:00,
2013-12-12 02:36:00,57.2,28.2,27.49,West,270,1.6,5.4,33,0.00,,,0.00,WUHU216HW,2013-12-12 09:36:00,
2013-12-12 02:41:00,57.2,28.2,27.49,North,0,2.2,6.3,33,0.00,,,0.00,WUHU216HW,2013-12-12 09:41:00,
2013-12-12 02:46:00,56.9,27.9,27.49,WNW,293,3.6,6.3,33,0.00,,,0.00,WUHU216HW,2013-12-12 09:46:00,
2013-12-12 02:51:00,56.9,27.9,27.49,NW,315,2.9,5.8,33,0.00,,,0.00,WUHU216HW,2013-12-12 09:51:00,
2013-12-12 02:56:00,56.9,27.9,27.49,WNW,293,3.4,6.9,33,0.00,,,0.00,WUHU216HW,2013-12-12 09:56:00,
2013-12-12 03:01:00,56.7,27.7,27.49,WNW,293,1.8,6.9,33,0.00,,,0.00,WUHU216HW,2013-12-12 10:01:00,
2013-12-12 03:06:00,56.5,27.5,27.49,NNE,23,3.4,6.7,33,0.00,,,0.00,WUHU216HW,2013-12-12 10:06:00,
2013-12-12 03:11:00,56.5,27.5,27.49,NW,315,2.5,6.7,33,0.00,,,0.00,WUHU216HW,2013-12-12 10:11:00,
2013-12-12 03:15:00,56.3,27.4,27.48,West,270,3.1,5.8,33,0.00,,,0.00,WUHU216HW,2013-12-12 10:15:00,
2013-12-12 03:20:00,56.3,27.4,27.48,NW,315,2.5,5.1,33,0.00,,,0.00,WUHU216HW,2013-12-12 10:20:00,
2013-12-12 03:25:00,56.3,27.4,27.48,NNW,338,3.1,5.4,33,0.00,,,0.00,WUHU216HW,2013-12-12 10:25:00,
2013-12-12 03:30:00,56.5,26.8,27.48,NW,315,5.8,5.8,32,0.00,,,0.00,WUHU216HW,2013-12-12 10:30:00,
2013-12-12 03:35:00,56.3,26.7,27.48,NNW,338,5.1,5.8,32,0.00,,,0.00,WUHU216HW,2013-12-12 10:35:00,
2013-12-12 03:40:00,56.3,26.7,27.48,NNW,338,2.9,5.8,32,0.00,,,0.00,WUHU216HW,2013-12-12 10:40:00,
2013-12-12 03:45:00,56.0,26.4,27.48,West,270,2.5,5.4,32,0.00,,,0.00,WUHU216HW,2013-12-12 10:45:00,
2013-12-12 03:50:00,55.8,26.9,27.48,North,0,4.9,4.9,33,0.00,,,0.00,WUHU216HW,2013-12-12 10:50:00,
2013-12-12 03:55:00,55.8,26.9,27.48,NE,45,4.0,4.9,33,0.00,,,0.00,WUHU216HW,2013-12-12 10:55:00,
2013-12-12 04:00:00,55.6,26.7,27.48,NW,315,1.8,4.9,33,0.00,,,0.00,WUHU216HW,2013-12-12 11:00:00,
2013-12-12 04:05:00,55.4,26.6,27.48,North,0,5.1,5.1,33,0.00,,,0.00,WUHU216HW,2013-12-12 11:05:00,
2013-12-12 04:10:00,55.6,26.7,27.48,NW,315,6.5,6.5,33,0.00,,,0.00,WUHU216HW,2013-12-12 11:10:00,
2013-12-12 04:15:00,55.4,26.6,27.48,NNE,23,4.5,6.5,33,0.00,,,0.00,WUHU216HW,2013-12-12 11:15:00,
2013-12-12 04:20:00,55.4,26.6,27.48,West,270,4.0,6.5,33,0.00,,,0.00,WUHU216HW,2013-12-12 11:20:00,
2013-12-12 04:25:00,55.4,26.6,27.48,North,0,6.7,6.7,33,0.00,,,0.00,WUHU216HW,2013-12-12 11:25:00,
2013-12-12 04:30:00,55.4,26.6,27.47,WNW,293,4.0,6.7,33,0.00,,,0.00,WUHU216HW,2013-12-12 11:30:00,
2013-12-12 04:35:00,55.4,26.6,27.47,NNW,338,4.5,6.7,33,0.00,,,0.00,WUHU216HW,2013-12-12 11:35:00,
2013-12-12 04:40:00,55.4,26.6,27.47,WSW,248,3.4,6.7,33,0.00,,,0.00,WUHU216HW,2013-12-12 11:40:00,
2013-12-12 04:45:00,55.6,26.7,27.47,WSW,248,6.9,6.9,33,0.00,,,0.00,WUHU216HW,2013-12-12 11:45:00,
2013-12-12 04:50:00,55.6,26.7,27.47,NNW,338,3.4,6.9,33,0.00,,,0.00,WUHU216HW,2013-12-12 11:50:00,
2013-12-12 04:55:00,55.6,26.7,27.47,SSW,203,5.6,6.7,33,0.00,,,0.00,WUHU216HW,2013-12-12 11:55:00,
2013-12-12 05:00:00,55.8,26.9,27.47,West,270,5.6,6.9,33,0.00,,,0.00,WUHU216HW,2013-12-12 12:00:00,
2013-12-12 05:05:00,55.8,26.9,27.47,NNW,338,3.8,6.9,33,0.00,,,0.00,WUHU216HW,2013-12-12 12:05:00,
2013-12-12 05:10:00,55.8,26.9,27.47,NW,315,5.4,6.0,33,0.00,,,0.00,WUHU216HW,2013-12-12 12:10:00,
2013-12-12 05:15:00,55.6,26.7,27.47,NNW,338,2.2,6.0,33,0.00,,,0.00,WUHU216HW,2013-12-12 12:15:00,
2013-12-12 05:20:00,55.6,26.7,27.47,WSW,248,4.0,6.9,33,0.00,,,0.00,WUHU216HW,2013-12-12 12:20:00,
2013-12-12 05:25:00,55.6,26.7,27.47,NNE,23,2.7,6.9,33,0.00,,,0.00,WUHU216HW,2013-12-12 12:25:00,
2013-12-12 05:30:00,55.6,26.7,27.47,North,0,5.4,6.9,33,0.00,,,0.00,WUHU216HW,2013-12-12 12:30:00,
2013-12-12 05:35:00,55.6,26.7,27.46,NW,315,5.6,7.6,33,0.00,,,0.00,WUHU216HW,2013-12-12 12:35:00,
2013-12-12 05:40:00,55.6,26.7,27.47,West,270,4.9,11.0,33,0.00,,,0.00,WUHU216HW,2013-12-12 12:40:00,
2013-12-12 05:45:00,55.6,26.7,27.47,NE,45,4.0,11.0,33,0.00,,,0.00,WUHU216HW,2013-12-12 12:45:00,
2013-12-12 05:50:00,55.6,26.7,27.46,North,0,5.4,7.6,33,0.00,,,0.00,WUHU216HW,2013-12-12 12:50:00,
2013-12-12 05:55:00,55.6,27.5,27.47,NW,315,5.8,7.6,34,0.00,,,0.00,WUHU216HW,2013-12-12 12:55:00,
2013-12-12 06:00:00,55.6,27.5,27.47,NNW,338,3.1,9.2,34,0.00,,,0.00,WUHU216HW,2013-12-12 13:00:00,
2013-12-12 06:05:00,55.4,27.3,27.47,NNW,338,4.7,9.2,34,0.00,,,0.00,WUHU216HW,2013-12-12 13:05:00,
2013-12-12 06:10:00,55.4,27.3,27.47,North,0,2.7,5.8,34,0.00,,,0.00,WUHU216HW,2013-12-12 13:10:00,
2013-12-12 06:15:00,55.3,27.2,27.47,West,270,5.8,8.5,34,0.00,,,0.00,WUHU216HW,2013-12-12 13:15:00,
2013-12-12 06:20:00,55.3,27.2,27.47,SW,225,3.8,8.7,34,0.00,,,0.00,WUHU216HW,2013-12-12 13:20:00,
2013-12-12 06:25:00,55.3,27.2,27.47,NW,315,8.5,8.7,34,0.00,,,0.00,WUHU216HW,2013-12-12 13:25:00,
2013-12-12 06:30:00,55.1,27.0,27.48,NNW,338,4.9,9.2,34,0.00,,,0.00,WUHU216HW,2013-12-12 13:30:00,
2013-12-12 06:35:00,55.1,27.0,27.48,NW,315,4.7,9.2,34,0.00,,,0.00,WUHU216HW,2013-12-12 13:35:00,
2013-12-12 06:40:00,54.9,26.8,27.48,North,0,5.4,6.9,34,0.00,,,0.00,WUHU216HW,2013-12-12 13:40:00,
2013-12-12 06:45:00,54.9,26.8,27.47,NW,315,4.5,8.1,34,0.00,,,0.00,WUHU216HW,2013-12-12 13:45:00,
2013-12-12 06:50:00,54.9,26.8,27.47,NNW,338,4.0,8.1,34,0.00,,,0.00,WUHU216HW,2013-12-12 13:50:00,
2013-12-12 06:55:00,54.9,26.8,27.47,NW,315,5.6,7.6,34,0.00,,,0.00,WUHU216HW,2013-12-12 13:55:00,
2013-12-12 07:00:00,55.1,27.0,27.47,NNE,23,4.7,7.6,34,0.00,,,0.00,WUHU216HW,2013-12-12 14:00:00,
2013-12-12 07:05:00,55.1,27.0,27.47,West,270,3.1,7.6,34,0.00,,,0.00,WUHU216HW,2013-12-12 14:05:00,
2013-12-12 07:10:00,55.3,27.2,27.47,NNW,338,3.4,8.3,34,0.00,,,0.00,WUHU216HW,2013-12-12 14:10:00,
2013-12-12 07:15:00,55.3,27.2,27.48,NW,315,4.0,8.3,34,0.00,,,0.00,WUHU216HW,2013-12-12 14:15:00,
2013-12-12 07:20:00,55.3,27.2,27.48,North,0,7.4,7.6,34,0.00,,,0.00,WUHU216HW,2013-12-12 14:20:00,
2013-12-12 07:25:00,55.3,27.2,27.47,NW,315,4.3,7.6,34,0.00,,,0.00,WUHU216HW,2013-12-12 14:25:00,
2013-12-12 07:30:00,55.3,27.2,27.47,NW,315,4.0,9.6,34,0.00,,,0.00,WUHU216HW,2013-12-12 14:30:00,
2013-12-12 07:35:00,55.3,27.2,27.47,NW,315,7.6,9.6,34,0.00,,,0.00,WUHU216HW,2013-12-12 14:35:00,
2013-12-12 07:40:00,55.4,27.3,27.47,NNW,338,5.6,8.7,34,0.00,,,0.00,WUHU216HW,2013-12-12 14:40:00,
2013-12-12 07:45:00,55.4,27.3,27.47,WNW,293,6.9,8.3,34,0.00,,,0.00,WUHU216HW,2013-12-12 14:45:00,
2013-12-12 07:50:00,55.6,27.5,27.47,NW,315,4.7,7.6,34,0.00,,,0.00,WUHU216HW,2013-12-12 14:50:00,
2013-12-12 07:55:00,55.6,27.5,27.47,NNW,338,4.7,8.7,34,0.00,,,0.00,WUHU216HW,2013-12-12 14:55:00,
2013-12-12 08:00:00,55.6,27.5,27.47,West,270,3.6,8.7,34,0.00,,,0.00,WUHU216HW,2013-12-12 15:00:00,
2013-12-12 08:05:00,55.6,27.5,27.48,North,0,6.3,8.7,34,0.00,,,0.00,WUHU216HW,2013-12-12 15:05:00,
2013-12-12 08:10:00,56.2,27.9,27.48,WSW,248,7.4,8.9,34,0.00,,,0.00,WUHU216HW,2013-12-12 15:10:00,
2013-12-12 08:15:00,56.5,27.5,27.48,NW,315,6.0,8.9,33,0.00,,,0.00,WUHU216HW,2013-12-12 15:15:00,
2013-12-12 08:20:00,56.9,27.9,27.49,SW,225,7.4,11.4,33,0.00,,,0.00,WUHU216HW,2013-12-12 15:20:00,
2013-12-12 08:25:00,56.9,27.9,27.49,NNW,338,9.6,11.4,33,0.00,,,0.00,WUHU216HW,2013-12-12 15:25:00,
2013-12-12 08:30:00,57.1,27.4,27.49,NNW,338,5.1,11.0,32,0.00,,,0.00,WUHU216HW,2013-12-12 15:30:00,
2013-12-12 08:35:00,56.9,27.9,27.50,NW,315,8.5,11.2,33,0.00,,,0.00,WUHU216HW,2013-12-12 15:35:00,
2013-12-12 08:40:00,56.9,27.9,27.50,WNW,293,3.4,11.2,33,0.00,,,0.00,WUHU216HW,2013-12-12 15:40:00,
2013-12-12 08:45:00,56.9,27.9,27.50,WNW,293,5.8,10.1,33,0.00,,,0.00,WUHU216HW,2013-12-12 15:45:00,
2013-12-12 08:50:00,57.2,28.9,27.51,NW,315,4.0,8.3,34,0.00,,,0.00,WUHU216HW,2013-12-12 15:50:00,
2013-12-12 08:55:00,57.8,28.7,27.51,NNW,338,7.6,8.5,33,0.00,,,0.00,WUHU216HW,2013-12-12 15:55:00,
2013-12-12 09:00:00,58.3,28.4,27.51,North,0,7.2,11.0,32,0.00,,,0.00,WUHU216HW,2013-12-12 16:00:00,
2013-12-12 09:05:00,58.7,28.8,27.51,WNW,293,4.7,11.0,32,0.00,,,0.00,WUHU216HW,2013-12-12 16:05:00,
2013-12-12 09:10:00,59.0,28.5,27.51,NW,315,6.9,9.8,31,0.00,,,0.00,WUHU216HW,2013-12-12 16:10:00,
2013-12-12 09:15:00,59.0,28.5,27.51,SW,225,8.1,9.8,31,0.00,,,0.00,WUHU216HW,2013-12-12 16:15:00,
2013-12-12 09:20:00,59.0,29.2,27.51,NNW,338,5.4,9.8,32,0.00,,,0.00,WUHU216HW,2013-12-12 16:20:00,
2013-12-12 09:25:00,59.6,29.6,27.51,WNW,293,6.3,9.8,32,0.00,,,0.00,WUHU216HW,2013-12-12 16:25:00,
2013-12-12 09:30:00,59.9,29.2,27.52,NNW,338,6.3,9.2,31,0.00,,,0.00,WUHU216HW,2013-12-12 16:30:00,
2013-12-12 09:35:00,60.1,29.4,27.51,West,270,6.3,8.3,31,0.00,,,0.00,WUHU216HW,2013-12-12 16:35:00,
2013-12-12 09:40:00,60.5,30.3,27.51,NW,315,2.5,8.3,32,0.00,,,0.00,WUHU216HW,2013-12-12 16:40:00,
2013-12-12 09:45:00,60.5,29.6,27.52,NW,315,7.8,8.5,31,0.00,,,0.00,WUHU216HW,2013-12-12 16:45:00,
2013-12-12 09:50:00,60.3,29.4,27.52,East,90,4.5,8.5,31,0.00,,,0.00,WUHU216HW,2013-12-12 16:50:00,
2013-12-12 09:55:00,59.9,29.9,27.52,WSW,248,4.7,7.8,32,0.00,,,0.00,WUHU216HW,2013-12-12 16:55:00,
2013-12-12 10:00:00,59.9,30.6,27.52,NNW,338,6.7,7.4,33,0.00,,,0.00,WUHU216HW,2013-12-12 17:00:00,
2013-12-12 10:05:00,60.5,31.1,27.52,NW,315,4.7,6.7,33,0.00,,,0.00,WUHU216HW,2013-12-12 17:05:00,
2013-12-12 10:10:00,61.2,31.7,27.51,WNW,293,3.6,7.6,33,0.00,,,0.00,WUHU216HW,2013-12-12 17:10:00,
2013-12-12 10:15:00,61.9,32.3,27.51,West,270,3.4,7.8,33,0.00,,,0.00,WUHU216HW,2013-12-12 17:15:00,
2013-12-12 10:20:00,62.3,31.9,27.51,West,270,3.4,8.5,32,0.00,,,0.00,WUHU216HW,2013-12-12 17:20:00,
2013-12-12 10:25:00,63.0,32.6,27.51,NNW,338,4.9,8.5,32,0.00,,,0.00,WUHU216HW,2013-12-12 17:25:00,
2013-12-12 10:30:00,63.4,32.9,27.51,West,270,4.3,6.9,32,0.00,,,0.00,WUHU216HW,2013-12-12 17:30:00,
2013-12-12 10:35:00,63.7,33.2,27.51,NNW,338,4.5,7.8,32,0.00,,,0.00,WUHU216HW,2013-12-12 17:35:00,
2013-12-12 10:40:00,64.4,33.8,27.51,WSW,248,3.4,7.8,32,0.00,,,0.00,WUHU216HW,2013-12-12 17:40:00,
2013-12-12 10:45:00,65.2,34.5,27.51,NNE,23,1.8,5.4,32,0.00,,,0.00,WUHU216HW,2013-12-12 17:45:00,
2013-12-12 10:50:00,65.9,35.8,27.50,WNW,293,2.9,5.4,33,0.00,,,0.00,WUHU216HW,2013-12-12 17:50:00,
2013-12-12 10:55:00,67.7,36.6,27.50,WNW,293,4.0,5.4,32,0.00,,,0.00,WUHU216HW,2013-12-12 17:55:00,
2013-12-12 11:00:00,68.2,37.1,27.50,West,270,2.2,6.5,32,0.00,,,0.00,WUHU216HW,2013-12-12 18:00:00,
2013-12-12 11:05:00,68.4,37.3,27.50,NW,315,3.6,6.5,32,0.00,,,0.00,WUHU216HW,2013-12-12 18:05:00,
2013-12-12 11:10:00,70.9,38.8,27.49,WNW,293,4.5,6.5,31,0.00,,,0.00,WUHU216HW,2013-12-12 18:10:00,
2013-12-12 11:15:00,73.4,39.2,27.49,WNW,293,4.3,6.5,29,0.00,,,0.00,WUHU216HW,2013-12-12 18:15:00,
2013-12-12 11:20:00,75.8,38.2,27.49,WSW,248,3.1,6.3,26,0.00,,,0.00,WUHU216HW,2013-12-12 18:20:00,
2013-12-12 11:25:00,77.6,38.6,27.48,NNW,338,4.3,6.3,25,0.00,,,0.00,WUHU216HW,2013-12-12 18:25:00,
2013-12-12 11:30:00,78.1,39.1,27.48,NW,315,4.9,6.9,25,0.00,,,0.00,WUHU216HW,2013-12-12 18:30:00,
2013-12-12 11:35:00,78.5,39.3,27.47,NNW,338,5.8,6.9,25,0.00,,,0.00,WUHU216HW,2013-12-12 18:35:00,
2013-12-12 11:40:00,78.3,39.2,27.47,North,0,3.4,5.8,25,0.00,,,0.00,WUHU216HW,2013-12-12 18:40:00,
2013-12-12 11:45:00,78.7,39.4,27.47,West,270,5.4,6.3,25,0.00,,,0.00,WUHU216HW,2013-12-12 18:45:00,
2013-12-12 11:50:00,77.6,38.6,27.47,NW,315,3.8,6.3,25,0.00,,,0.00,WUHU216HW,2013-12-12 18:50:00,
2013-12-12 11:55:00,76.5,38.7,27.47,NW,315,3.1,6.9,26,0.00,,,0.00,WUHU216HW,2013-12-12 18:55:00,
2013-12-12 12:00:00,75.2,39.7,27.46,NW,315,2.5,6.9,28,0.00,,,0.00,WUHU216HW,2013-12-12 19:00:00,
2013-12-12 12:05:00,74.3,41.0,27.46,NNW,338,2.5,5.4,30,0.00,,,0.00,WUHU216HW,2013-12-12 19:05:00,
2013-12-12 12:10:00,74.0,40.6,27.46,NNW,338,2.9,5.4,30,0.00,,,0.00,WUHU216HW,2013-12-12 19:10:00,
2013-12-12 12:15:00,73.4,40.1,27.46,NNW,338,2.7,5.4,30,0.00,,,0.00,WUHU216HW,2013-12-12 19:15:00,
2013-12-12 12:20:00,73.4,40.9,27.46,NW,315,2.7,4.3,31,0.00,,,0.00,WUHU216HW,2013-12-12 19:20:00,
2013-12-12 12:25:00,73.3,40.8,27.45,North,0,2.5,5.1,31,0.00,,,0.00,WUHU216HW,2013-12-12 19:25:00,
2013-12-12 12:30:00,72.7,41.0,27.45,NNW,338,2.0,5.1,32,0.00,,,0.00,WUHU216HW,2013-12-12 19:30:00,
2013-12-12 12:35:00,72.5,41.0,27.45,NNW,338,1.8,4.5,32,0.00,,,0.00,WUHU216HW,2013-12-12 19:35:00,
2013-12-12 12:40:00,73.1,41.4,27.45,NW,315,1.8,5.1,32,0.00,,,0.00,WUHU216HW,2013-12-12 19:40:00,
2013-12-12 12:45:00,73.3,40.8,27.44,NNE,23,3.4,5.1,31,0.00,,,0.00,WUHU216HW,2013-12-12 19:45:00,
2013-12-12 12:50:00,73.1,41.4,27.44,NW,315,1.8,6.5,32,0.00,,,0.00,WUHU216HW,2013-12-12 19:50:00,
2013-12-12 12:55:00,73.6,41.9,27.43,NNW,338,0.9,6.5,32,0.00,,,0.00,WUHU216HW,2013-12-12 19:55:00,
2013-12-12 13:00:00,74.7,42.0,27.43,NE,45,0.7,2.9,31,0.00,,,0.00,WUHU216HW,2013-12-12 20:00:00,
2013-12-12 13:05:00,75.6,42.1,27.43,NNW,338,2.0,2.5,30,0.00,,,0.00,WUHU216HW,2013-12-12 20:05:00,
2013-12-12 13:10:00,75.4,42.0,27.43,NW,315,3.1,4.0,30,0.00,,,0.00,WUHU216HW,2013-12-12 20:10:00,
2013-12-12 13:15:00,75.2,41.8,27.42,ESE,113,2.5,4.0,30,0.00,,,0.00,WUHU216HW,2013-12-12 20:15:00,
2013-12-12 13:20:00,74.7,42.0,27.42,South,180,1.3,3.8,31,0.00,,,0.00,WUHU216HW,2013-12-12 20:20:00,
2013-12-12 13:25:00,74.9,42.2,27.41,West,270,1.8,3.4,31,0.00,,,0.00,WUHU216HW,2013-12-12 20:25:00,
2013-12-12 13:30:00,74.9,41.4,27.41,NNE,23,3.1,3.4,30,0.00,,,0.00,WUHU216HW,2013-12-12 20:30:00,
2013-12-12 13:35:00,74.7,41.3,27.41,NE,45,1.8,3.4,30,0.00,,,0.00,WUHU216HW,2013-12-12 20:35:00,
2013-12-12 13:40:00,74.7,42.0,27.41,East,90,0.4,2.5,31,0.00,,,0.00,WUHU216HW,2013-12-12 20:40:00,
2013-12-12 13:45:00,75.1,41.6,27.41,East,90,3.6,3.6,30,0.00,,,0.00,WUHU216HW,2013-12-12 20:45:00,
2013-12-12 13:50:00,74.9,42.2,27.40,NNE,23,0.7,4.5,31,0.00,,,0.00,WUHU216HW,2013-12-12 20:50:00,
2013-12-12 13:55:00,75.1,41.6,27.40,WNW,293,2.5,4.5,30,0.00,,,0.00,WUHU216HW,2013-12-12 20:55:00,
2013-12-12 14:00:00,74.7,41.3,27.40,East,90,3.6,4.0,30,0.00,,,0.00,WUHU216HW,2013-12-12 21:00:00,
2013-12-12 14:05:00,74.2,41.6,27.40,North,0,3.4,3.6,31,0.00,,,0.00,WUHU216HW,2013-12-12 21:05:00,
2013-12-12 14:10:00,74.0,42.1,27.40,ESE,113,1.8,3.6,32,0.00,,,0.00,WUHU216HW,2013-12-12 21:10:00,
2013-12-12 14:15:00,74.0,41.4,27.40,NW,315,0.9,3.4,31,0.00,,,0.00,WUHU216HW,2013-12-12 21:15:00,
2013-12-12 14:20:00,74.2,42.3,27.40,ESE,113,4.0,4.0,32,0.00,,,0.00,WUHU216HW,2013-12-12 21:20:00,
2013-12-12 14:25:00,74.0,41.4,27.40,ESE,113,1.6,4.0,31,0.00,,,0.00,WUHU216HW,2013-12-12 21:25:00,
2013-12-12 14:30:00,73.4,41.7,27.39,SSE,158,2.0,4.0,32,0.00,,,0.00,WUHU216HW,2013-12-12 21:30:00,
2013-12-12 14:35:00,72.9,41.2,27.39,North,0,0.7,3.4,32,0.00,,,0.00,WUHU216HW,2013-12-12 21:35:00,
2013-12-12 14:40:00,72.7,41.0,27.39,NE,45,0.4,3.4,32,0.00,,,0.00,WUHU216HW,2013-12-12 21:40:00,
2013-12-12 14:45:00,72.7,41.0,27.39,East,90,1.1,2.5,32,0.00,,,0.00,WUHU216HW,2013-12-12 21:45:00,
2013-12-12 14:50:00,72.4,41.5,27.39,South,180,2.9,3.4,33,0.00,,,0.00,WUHU216HW,2013-12-12 21:50:00,
2013-12-12 14:55:00,72.4,41.5,27.39,SSE,158,1.8,3.4,33,0.00,,,0.00,WUHU216HW,2013-12-12 21:55:00,
2013-12-12 15:00:00,72.0,41.2,27.39,SE,135,2.5,2.9,33,0.00,,,0.00,WUHU216HW,2013-12-12 22:00:00,
2013-12-12 15:05:00,72.0,41.2,27.39,South,180,2.5,3.4,33,0.00,,,0.00,WUHU216HW,2013-12-12 22:05:00,
2013-12-12 15:10:00,72.4,41.5,27.39,SSE,158,1.8,3.4,33,0.00,,,0.00,WUHU216HW,2013-12-12 22:10:00,
2013-12-12 15:15:00,73.1,41.4,27.39,SSE,158,4.7,4.7,32,0.00,,,0.00,WUHU216HW,2013-12-12 22:15:00,
2013-12-12 15:20:00,72.9,41.9,27.39,SE,135,4.0,4.9,33,0.00,,,0.00,WUHU216HW,2013-12-12 22:20:00,
2013-12-12 15:25:00,72.4,41.5,27.39,ESE,113,2.5,4.9,33,0.00,,,0.00,WUHU216HW,2013-12-12 22:25:00,
2013-12-12 15:30:00,72.4,42.3,27.39,South,180,5.6,5.6,34,0.00,,,0.00,WUHU216HW,2013-12-12 22:30:00,
2013-12-12 15:35:00,72.4,42.3,27.39,SE,135,2.5,5.6,34,0.00,,,0.00,WUHU216HW,2013-12-12 22:35:00,
2013-12-12 15:40:00,72.4,42.3,27.39,SE,135,3.1,5.6,34,0.00,,,0.00,WUHU216HW,2013-12-12 22:40:00,
2013-12-12 15:45:00,71.6,41.7,27.39,SSE,158,3.6,4.7,34,0.00,,,0.00,WUHU216HW,2013-12-12 22:45:00,
2013-12-12 15:49:00,70.9,41.8,27.39,ESE,113,0.9,4.7,35,0.00,,,0.00,WUHU216HW,2013-12-12 22:49:00,
2013-12-12 15:54:00,70.6,42.1,27.39,East,90,3.4,5.4,36,0.00,,,0.00,WUHU216HW,2013-12-12 22:54:00,
2013-12-12 15:59:00,70.0,42.4,27.39,SE,135,4.0,5.6,37,0.00,,,0.00,WUHU216HW,2013-12-12 22:59:00,
2013-12-12 16:04:00,69.7,42.1,27.39,East,90,3.4,5.6,37,0.00,,,0.00,WUHU216HW,2013-12-12 23:04:00,
2013-12-12 16:09:00,69.8,42.2,27.39,SSE,158,1.8,4.0,37,0.00,,,0.00,WUHU216HW,2013-12-12 23:09:00,
2013-12-12 16:14:00,70.2,42.6,27.40,ESE,113,2.0,4.0,37,0.00,,,0.00,WUHU216HW,2013-12-12 23:14:00,
2013-12-12 16:19:00,70.4,41.2,27.40,North,0,2.9,4.5,35,0.00,,,0.00,WUHU216HW,2013-12-12 23:19:00,
2013-12-12 16:24:00,70.2,40.3,27.40,SSE,158,3.6,6.0,34,0.00,,,0.00,WUHU216HW,2013-12-12 23:24:00,
2013-12-12 16:29:00,69.5,39.7,27.40,SSE,158,3.4,6.9,34,0.00,,,0.00,WUHU216HW,2013-12-12 23:29:00,
2013-12-12 16:34:00,68.8,39.8,27.40,South,180,4.9,6.9,35,0.00,,,0.00,WUHU216HW,2013-12-12 23:34:00,
2013-12-12 16:39:00,68.4,39.5,27.40,ESE,113,5.4,7.8,35,0.00,,,0.00,WUHU216HW,2013-12-12 23:39:00,
2013-12-12 16:44:00,67.9,39.7,27.40,South,180,4.5,7.8,36,0.00,,,0.00,WUHU216HW,2013-12-12 23:44:00,
2013-12-12 16:49:00,67.3,40.0,27.40,SSW,203,4.5,6.7,37,0.00,,,0.00,WUHU216HW,2013-12-12 23:49:00,
2013-12-12 16:54:00,67.0,39.7,27.40,SE,135,5.6,6.3,37,0.00,,,0.00,WUHU216HW,2013-12-12 23:54:00,
2013-12-12 16:59:00,66.8,38.8,27.41,SE,135,4.0,6.0,36,0.00,,,0.00,WUHU216HW,2013-12-12 23:59:00,
2013-12-12 17:04:00,66.2,39.1,27.41,SW,225,4.0,6.0,37,0.00,,,0.00,WUHU216HW,2013-12-13 00:04:00,
2013-12-12 17:09:00,65.3,38.3,27.41,SSE,158,3.4,8.5,37,0.00,,,0.00,WUHU216HW,2013-12-13 00:09:00,
2013-12-12 17:14:00,64.8,37.8,27.41,South,180,4.7,8.5,37,0.00,,,0.00,WUHU216HW,2013-12-13 00:14:00,
2013-12-12 17:19:00,64.3,37.3,27.41,South,180,2.9,6.3,37,0.00,,,0.00,WUHU216HW,2013-12-13 00:19:00,
2013-12-12 17:24:00,63.7,37.5,27.41,SSW,203,5.1,5.4,38,0.00,,,0.00,WUHU216HW,2013-12-13 00:24:00,
2013-12-12 17:29:00,63.5,37.4,27.41,South,180,3.6,5.4,38,0.00,,,0.00,WUHU216HW,2013-12-13 00:29:00,
2013-12-12 17:34:00,63.2,37.0,27.42,SSE,158,2.5,6.0,38,0.00,,,0.00,WUHU216HW,2013-12-13 00:34:00,
2013-12-12 17:39:00,62.8,36.7,27.42,SE,135,2.9,6.0,38,0.00,,,0.00,WUHU216HW,2013-12-13 00:39:00,
2013-12-12 17:44:00,62.5,36.4,27.42,SE,135,2.9,5.4,38,0.00,,,0.00,WUHU216HW,2013-12-13 00:44:00,
2013-12-12 17:49:00,62.3,36.2,27.42,SSE,158,2.9,4.5,38,0.00,,,0.00,WUHU216HW,2013-12-13 00:49:00,
2013-12-12 17:54:00,62.1,36.8,27.42,SE,135,2.0,4.3,39,0.00,,,0.00,WUHU216HW,2013-12-13 00:54:00,
2013-12-12 17:59:00,61.7,36.5,27.42,SSE,158,2.5,4.3,39,0.00,,,0.00,WUHU216HW,2013-12-13 00:59:00,
2013-12-12 18:04:00,61.6,36.3,27.42,ENE,68,2.2,2.9,39,0.00,,,0.00,WUHU216HW,2013-12-13 01:04:00,
2013-12-12 18:09:00,61.2,35.3,27.43,ESE,113,2.2,4.0,38,0.00,,,0.00,WUHU216HW,2013-12-13 01:09:00,
2013-12-12 18:14:00,61.0,35.1,27.43,East,90,1.8,4.0,38,0.00,,,0.00,WUHU216HW,2013-12-13 01:14:00,
2013-12-12 18:19:00,60.8,35.6,27.43,SE,135,0.4,3.8,39,0.00,,,0.00,WUHU216HW,2013-12-13 01:19:00,
2013-12-12 18:24:00,60.5,35.3,27.43,SSE,158,1.8,2.2,39,0.00,,,0.00,WUHU216HW,2013-12-13 01:24:00,
2013-12-12 18:29:00,60.1,35.0,27.43,SE,135,1.3,2.0,39,0.00,,,0.00,WUHU216HW,2013-12-13 01:29:00,
2013-12-12 18:34:00,59.8,34.7,27.43,ESE,113,1.8,2.0,39,0.00,,,0.00,WUHU216HW,2013-12-13 01:34:00,
2013-12-12 18:39:00,59.6,34.6,27.43,SSW,203,0.7,2.5,39,0.00,,,0.00,WUHU216HW,2013-12-13 01:39:00,
2013-12-12 18:44:00,59.4,34.4,27.44,SE,135,1.3,2.5,39,0.00,,,0.00,WUHU216HW,2013-12-13 01:44:00,
2013-12-12 18:49:00,59.0,34.0,27.44,SE,135,0.9,3.4,39,0.00,,,0.00,WUHU216HW,2013-12-13 01:49:00,
2013-12-12 18:54:00,58.9,33.8,27.44,South,180,1.1,3.4,39,0.00,,,0.00,WUHU216HW,2013-12-13 01:54:00,
2013-12-12 18:59:00,58.7,33.8,27.45,SE,135,0.7,1.8,39,0.00,,,0.00,WUHU216HW,2013-12-13 01:59:00,
2013-12-12 19:04:00,58.5,33.6,27.45,SSE,158,2.7,2.7,39,0.00,,,0.00,WUHU216HW,2013-12-13 02:04:00,
2013-12-12 19:09:00,58.3,33.4,27.45,ESE,113,1.1,2.7,39,0.00,,,0.00,WUHU216HW,2013-12-13 02:09:00,
2013-12-12 19:14:00,58.1,33.2,27.45,SE,135,1.1,2.7,39,0.00,,,0.00,WUHU216HW,2013-12-13 02:14:00,
2013-12-12 19:19:00,58.0,33.0,27.45,SSE,158,0.9,1.6,39,0.00,,,0.00,WUHU216HW,2013-12-13 02:19:00,
2013-12-12 19:24:00,57.8,33.0,27.45,SE,135,0.0,1.6,39,0.00,,,0.00,WUHU216HW,2013-12-13 02:24:00,
2013-12-12 19:29:00,57.6,32.8,27.45,SSE,158,0.4,1.6,39,0.00,,,0.00,WUHU216HW,2013-12-13 02:29:00,
2013-12-12 19:34:00,57.4,32.6,27.45,SSE,158,0.0,0.9,39,0.00,,,0.00,WUHU216HW,2013-12-13 02:34:00,
2013-12-12 19:39:00,57.2,32.4,27.45,SE,135,0.0,0.9,39,0.00,,,0.00,WUHU216HW,2013-12-13 02:39:00,
2013-12-12 19:44:00,56.9,32.1,27.45,SE,135,0.0,0.9,39,0.00,,,0.00,WUHU216HW,2013-12-13 02:44:00,
2013-12-12 19:49:00,56.7,32.0,27.45,South,180,0.7,0.9,39,0.00,,,0.00,WUHU216HW,2013-12-13 02:49:00,
2013-12-12 19:54:00,56.5,32.5,27.45,South,180,0.0,0.9,40,0.00,,,0.00,WUHU216HW,2013-12-13 02:54:00,
2013-12-12 19:59:00,56.2,32.1,27.45,South,180,0.0,0.4,40,0.00,,,0.00,WUHU216HW,2013-12-13 02:59:00,
2013-12-12 20:04:00,55.8,31.9,27.45,South,180,0.0,0.0,40,0.00,,,0.00,WUHU216HW,2013-12-13 03:04:00,
2013-12-12 20:09:00,55.6,32.2,27.45,South,180,0.0,0.0,41,0.00,,,0.00,WUHU216HW,2013-12-13 03:09:00,
2013-12-12 20:14:00,55.1,32.3,27.45,South,180,0.0,0.0,42,0.00,,,0.00,WUHU216HW,2013-12-13 03:14:00,
2013-12-12 20:19:00,54.7,32.0,27.46,South,180,0.0,0.0,42,0.00,,,0.00,WUHU216HW,2013-12-13 03:19:00,
2013-12-12 20:24:00,54.5,32.4,27.46,South,180,0.0,0.0,43,0.00,,,0.00,WUHU216HW,2013-12-13 03:24:00,
2013-12-12 20:29:00,54.4,32.2,27.46,South,180,0.0,0.0,43,0.00,,,0.00,WUHU216HW,2013-12-13 03:29:00,
2013-12-12 20:34:00,54.4,32.2,27.46,South,180,0.0,0.0,43,0.00,,,0.00,WUHU216HW,2013-12-13 03:34:00,
2013-12-12 20:39:00,54.2,32.0,27.46,South,180,0.0,0.0,43,0.00,,,0.00,WUHU216HW,2013-12-13 03:39:00,
2013-12-12 20:44:00,54.0,31.9,27.46,South,180,0.0,0.0,43,0.00,,,0.00,WUHU216HW,2013-12-13 03:44:00,
2013-12-12 20:49:00,54.0,32.4,27.46,SE,135,0.0,0.2,44,0.00,,,0.00,WUHU216HW,2013-12-13 03:49:00,
2013-12-12 20:54:00,53.6,32.1,27.45,SE,135,0.0,0.2,44,0.00,,,0.00,WUHU216HW,2013-12-13 03:54:00,
2013-12-12 20:59:00,53.6,32.1,27.45,SE,135,0.0,0.0,44,0.00,,,0.00,WUHU216HW,2013-12-13 03:59:00,
2013-12-12 21:04:00,53.3,31.8,27.45,SE,135,0.0,0.0,44,0.00,,,0.00,WUHU216HW,2013-12-13 04:04:00,
2013-12-12 21:09:00,53.1,32.2,27.45,West,270,0.4,0.7,45,0.00,,,0.00,WUHU216HW,2013-12-13 04:09:00,
2013-12-12 21:14:00,52.7,31.9,27.46,WNW,293,0.0,0.7,45,0.00,,,0.00,WUHU216HW,2013-12-13 04:14:00,
2013-12-12 21:19:00,52.4,32.1,27.46,WNW,293,0.0,0.4,46,0.00,,,0.00,WUHU216HW,2013-12-13 04:19:00,
2013-12-12 21:24:00,52.2,31.4,27.46,WNW,293,0.0,0.0,45,0.00,,,0.00,WUHU216HW,2013-12-13 04:24:00,
2013-12-12 21:29:00,52.0,31.8,27.46,WNW,293,0.0,0.0,46,0.00,,,0.00,WUHU216HW,2013-12-13 04:29:00,
2013-12-12 21:34:00,51.8,31.6,27.45,WNW,293,0.0,0.0,46,0.00,,,0.00,WUHU216HW,2013-12-13 04:34:00,
2013-12-12 21:39:00,51.8,31.1,27.46,WNW,293,0.0,0.0,45,0.00,,,0.00,WUHU216HW,2013-12-13 04:39:00,
2013-12-12 21:44:00,51.7,31.4,27.46,WNW,293,0.0,0.0,46,0.00,,,0.00,WUHU216HW,2013-12-13 04:44:00,
2013-12-12 21:49:00,51.5,31.3,27.46,WNW,293,0.0,0.0,46,0.00,,,0.00,WUHU216HW,2013-12-13 04:49:00,
2013-12-12 21:54:00,51.5,31.3,27.46,WNW,293,0.0,0.0,46,0.00,,,0.00,WUHU216HW,2013-12-13 04:54:00,
2013-12-12 21:59:00,51.1,31.0,27.46,WNW,293,0.0,0.0,46,0.00,,,0.00,WUHU216HW,2013-12-13 04:59:00,
2013-12-12 22:01:00,51.1,31.0,27.46,WNW,293,1.1,1.1,46,0.00,,,0.00,WUHU216HW,2013-12-13 05:01:00,
2013-12-12 22:06:00,50.8,31.2,27.46,WNW,293,1.1,1.6,47,0.00,,,0.00,WUHU216HW,2013-12-13 05:06:00,
2013-12-12 22:11:00,50.8,31.2,27.46,NW,315,0.7,1.6,47,0.00,,,0.00,WUHU216HW,2013-12-13 05:11:00,
2013-12-12 22:16:00,50.6,31.6,27.46,NNW,338,0.4,1.3,48,0.00,,,0.00,WUHU216HW,2013-12-13 05:16:00,
2013-12-12 22:21:00,50.4,31.4,27.46,NNW,338,0.0,1.3,48,0.00,,,0.00,WUHU216HW,2013-12-13 05:21:00,
2013-12-12 22:26:00,50.2,31.9,27.46,North,0,0.4,0.9,49,0.00,,,0.00,WUHU216HW,2013-12-13 05:26:00,
2013-12-12 22:31:00,49.9,31.5,27.46,North,0,0.0,0.9,49,0.00,,,0.00,WUHU216HW,2013-12-13 05:31:00,
2013-12-12 22:36:00,49.5,31.7,27.46,North,0,0.0,0.4,50,0.00,,,0.00,WUHU216HW,2013-12-13 05:36:00,
2013-12-12 22:41:00,49.3,31.5,27.46,North,0,0.0,0.0,50,0.00,,,0.00,WUHU216HW,2013-12-13 05:41:00,
2013-12-12 22:46:00,49.3,32.0,27.46,North,0,0.0,0.4,51,0.00,,,0.00,WUHU216HW,2013-12-13 05:46:00,
2013-12-12 22:51:00,49.3,32.0,27.46,North,0,0.0,0.4,51,0.00,,,0.00,WUHU216HW,2013-12-13 05:51:00,
2013-12-12 22:56:00,49.1,31.3,27.46,North,0,0.0,0.0,50,0.00,,,0.00,WUHU216HW,2013-12-13 05:56:00,
2013-12-12 23:01:00,49.0,31.6,27.46,North,0,0.0,0.0,51,0.00,,,0.00,WUHU216HW,2013-12-13 06:01:00,
2013-12-12 23:06:00,48.8,31.0,27.46,North,0,0.0,0.0,50,0.00,,,0.00,WUHU216HW,2013-12-13 06:06:00,
2013-12-12 23:11:00,48.6,31.7,27.46,North,0,0.0,0.0,52,0.00,,,0.00,WUHU216HW,2013-12-13 06:11:00,
2013-12-12 23:16:00,48.6,32.1,27.46,North,0,0.0,0.4,53,0.00,,,0.00,WUHU216HW,2013-12-13 06:16:00,
2013-12-12 23:21:00,48.4,31.5,27.46,North,0,0.0,0.4,52,0.00,,,0.00,WUHU216HW,2013-12-13 06:21:00,
2013-12-12 23:26:00,48.4,31.5,27.46,North,0,0.0,0.0,52,0.00,,,0.00,WUHU216HW,2013-12-13 06:26:00,
2013-12-12 23:31:00,48.4,31.5,27.46,North,0,0.0,0.0,52,0.00,,,0.00,WUHU216HW,2013-12-13 06:31:00,
2013-12-12 23:36:00,48.4,31.1,27.46,North,0,0.4,0.4,51,0.00,,,0.00,WUHU216HW,2013-12-13 06:36:00,
2013-12-12 23:41:00,48.4,31.1,27.46,North,0,0.0,0.4,51,0.00,,,0.00,WUHU216HW,2013-12-13 06:41:00,
2013-12-12 23:46:00,48.4,31.1,27.46,NNE,23,0.0,0.4,51,0.00,,,0.00,WUHU216HW,2013-12-13 06:46:00,
2013-12-12 23:51:00,48.2,30.9,27.46,NNE,23,0.0,0.4,51,0.00,,,0.00,WUHU216HW,2013-12-13 06:51:00,
2013-12-12 23:56:00,48.1,30.7,27.46,NNE,23,0.0,0.4,51,0.00,,,0.00,WUHU216HW,2013-12-13 06:56:00,